Regional Weather Roundup
Issued by NWS Goodland, KS

Home | Current Version | Previous Version | Graphics & Text | Print | Product List | Glossary On
Versions: 1 2 3 4 5 6 7 8 9 10 11 12 13 14 15 16 17 18 19 20 21 22 23 24 25 26 27 28 29 30 31 32 33 34 35 36 37 38 39 40 41 42 43 44 45 46 47 48 49 50
000
ASUS43 KGLD 281431
RWRGLD

GOODLAND FORECAST AREA HOURLY WEATHER ROUNDUP
NATIONAL WEATHER SERVICE DODGE CITY KS
FOR NATIONAL WEATHER SERVICE GOODLAND KS
900 AM CDT TUE JUL 28 2015

...OFFICIAL OBSERVATIONS...

CITY           SKY/WX    TMP DP  RH WIND       PRES   REMARKS
GOODLAND KS    SUNNY     70  49  47 N26G35    30.01R
HILL CITY KS   SUNNY     79  68  69 NW13      29.83R
IMPERIAL NEB   SUNNY     68  50  52 N21       30.00R
MCCOOK NEB     SUNNY     74  56  53 N24       29.92R
AKRON CO         N/A    N/A N/A N/A MISG      30.11R
BURLINGTON CO  SUNNY     69  44  40 N24G31    30.06R
LIMON CO       SUNNY     64  34  32 N20G29    30.15R
$$

...UNOFFICIAL OBSERVATIONS...

CITY           SKY/WX    TMP DP  RH WIND       PRES   REMARKS
COLBY KS       NOT AVBL
HOXIE KS       NOT AVBL
TRIBUNE KS     NOT AVBL
IDALIA CO      NOT AVBL
YUMA CO        NOT AVBL
$$



USA.gov is the U.S. government's official web portal to all federal, state and local government web resources and services.